Weather History for Bournemouth, United Kingdom

Change the Weather History Date:

Friday, October 18, 2013

  Actual Average Record
Temperature  
Mean Temperature 54 °F -  
Max Temperature 62 °F 54 °F 68 °F (1997)
Min Temperature 47 °F 40 °F 30 °F (1998)
Degree Days  
Heating Degree Days 10    
Growing Degree Days 4 (Base 50)    
Moisture  
Dew Point 55 °F    
Average Humidity 90    
Maximum Humidity 100    
Minimum Humidity 79    
Precipitation  
Precipitation 0.12 in 0.11 in - ()
Sea Level Pressure  
Sea Level Pressure 29.88 in    
Wind  
Wind Speed 8 mph ()    
Max Wind Speed 17 mph    
Max Gust Speed -    
Visibility 5.2 miles    
Events Fog , Rain    
Averages and records for this station are not official NWS values.
T = Trace of Precipitation, MM = Missing Value Source: Averaged Metar Reports

Daily Weather History Graph

Daily Weather History Graph

Search for Another Location

Airport:

Trip Planner

Search our weather history database for the weather conditions in past years. The results will help you decide how hot, cold, wet, or windy it might be!

Date:

Astronomy

Oct. 18, 2013 Rise Set
Actual Time 7:35 AM BST 6:08 PM BST
Civil Twilight 7:01 AM BST 6:42 PM BST
Nautical Twilight 6:23 AM BST 7:20 PM BST
Astronomical Twilight 5:45 AM BST 7:58 PM BST
Moon 5:48 PM BST (10/18) 6:54 AM BST (10/18)
Length of Visible Light 11h 40m
Length of Day
10h 33m
Full, 100% of the Moon is Illuminated
Oct 18
Full
Oct 19
Full
Oct 27
Last Quarter
Nov 3
New
Nov 10
First Quarter

Hourly Weather History & Observations

Time (BST) Temp. Dew Point Humidity Pressure Visibility Wind Dir Wind Speed Gust Speed Precip Events Conditions
12:50 AM 50 °F 50 °F 98% 30.01 in 0 mi South 1.2 mph - - Fog Fog
12:50 AM 50.0 °F 50.0 °F 100% 30.01 in - South 1.2 mph - N/A Fog Fog
1:20 AM 48.2 °F 48.2 °F 100% 30.01 in 1.5 mi NE 2.3 mph - N/A Fog Fog
2:20 AM 50.0 °F 50.0 °F 100% 30.01 in 1.6 mi NE 1.2 mph - N/A Fog Mostly Cloudy
2:50 AM 50.0 °F 50.0 °F 100% 30.01 in 1.6 mi NE 1.2 mph - N/A Fog Mostly Cloudy
3:50 AM 51 °F 51 °F 98% 29.99 in 3 mi SE 2.3 mph - - Rain Rain
4:50 AM 55.4 °F 55.4 °F 100% 29.98 in 2.8 mi SE 4.6 mph - N/A   Scattered Clouds
5:20 AM 57.2 °F 57.2 °F 100% 29.98 in 3.7 mi SE 5.8 mph - N/A   Mostly Cloudy
5:50 AM 57.2 °F 55.4 °F 94% 29.98 in 2.8 mi ESE 5.8 mph - N/A   Mostly Cloudy
6:20 AM 57.2 °F 57.2 °F 100% 29.95 in 3.1 mi East 8.1 mph - N/A   Scattered Clouds
6:50 AM 56 °F 56 °F 100% 29.96 in 3 mi East 8.1 mph - -   Mist
6:50 AM 57.2 °F 55.4 °F 94% 29.95 in - East 8.1 mph - N/A   Mostly Cloudy
7:20 AM 55.4 °F 55.4 °F 100% 29.95 in - East 6.9 mph - N/A   Mostly Cloudy
7:50 AM 57.2 °F 55.4 °F 94% 29.95 in 4.3 mi East 8.1 mph - N/A   Mostly Cloudy
8:20 AM 57.2 °F 57.2 °F 100% 29.95 in 4.3 mi ESE 9.2 mph - N/A   Scattered Clouds
8:50 AM 57.2 °F 57.2 °F 100% 29.95 in 5.0 mi ESE 9.2 mph - N/A   Mostly Cloudy
9:20 AM 59.0 °F 57.2 °F 94% 29.95 in 5.0 mi ESE 8.1 mph - N/A   Mostly Cloudy
9:50 AM 60 °F 58 °F 90% 29.96 in 6 mi SE 10.4 mph - -   Mostly Cloudy
10:20 AM 60.8 °F 57.2 °F 88% 29.95 in 5.6 mi SE 10.4 mph - N/A   Mostly Cloudy
10:50 AM 60.8 °F 57.2 °F 88% 29.95 in 5.6 mi SE 11.5 mph - N/A   Scattered Clouds
11:20 AM 60.8 °F 57.2 °F 88% 29.92 in 6.2 mi SE 12.7 mph - N/A   Scattered Clouds
11:50 AM 60.8 °F 57.2 °F 88% 29.92 in 6.2 mi SE 13.8 mph - N/A   Mostly Cloudy
12:20 PM 62.6 °F 57.2 °F 82% 29.92 in 6.2 mi SE 15.0 mph - N/A   Mostly Cloudy
12:50 PM 62 °F 57 °F 79% 29.91 in 9 mi SE 15.0 mph - -   Partly Cloudy
12:50 PM 62.6 °F 57.2 °F 82% 29.89 in 6.2 mi SE 15.0 mph - N/A   Scattered Clouds
1:20 PM 62.6 °F 57.2 °F 82% 29.89 in 6.2 mi SE 15.0 mph - N/A   Scattered Clouds
1:50 PM 60.8 °F 57.2 °F 88% 29.89 in 6.2 mi SSE 12.7 mph - N/A   Scattered Clouds
2:20 PM 60.8 °F 57.2 °F 88% 29.89 in 6.2 mi SE 15.0 mph - N/A   Partly Cloudy
2:50 PM 60.8 °F 57.2 °F 88% 29.86 in 6.2 mi SE 13.8 mph - N/A   Scattered Clouds
3:20 PM 60.8 °F 55.4 °F 82% 29.86 in 6.2 mi SE 17.3 mph - N/A   Partly Cloudy
3:50 PM 60 °F 56 °F 81% 29.85 in 8 mi SE 12.7 mph - -   Scattered Clouds
3:50 PM 60.8 °F 55.4 °F 82% 29.83 in 6.2 mi SE 12.7 mph - N/A   Partly Cloudy
4:20 PM 60.8 °F 55.4 °F 82% 29.83 in 6.2 mi ESE 15.0 mph - N/A   Mostly Cloudy
4:50 PM 59.0 °F 55.4 °F 88% 29.80 in 6.2 mi SE 15.0 mph - N/A   Mostly Cloudy
5:20 PM 59.0 °F 55.4 °F 88% 29.80 in 6.2 mi ESE 16.1 mph - N/A   Mostly Cloudy
5:50 PM 59.0 °F 53.6 °F 82% 29.80 in 6.2 mi ESE 16.1 mph - N/A   Mostly Cloudy
6:20 PM 59.0 °F 53.6 °F 82% 29.77 in 6.2 mi ESE 16.1 mph - N/A   Mostly Cloudy
6:50 PM 58 °F 54 °F 82% 29.80 in 10 mi SE 13.8 mph - -   Scattered Clouds
6:50 PM 59.0 °F 53.6 °F 82% 29.80 in 6.2 mi SE 13.8 mph - N/A   Partly Cloudy
7:20 PM 59.0 °F 53.6 °F 82% 29.77 in - SE 17.3 mph - N/A   Clear
7:50 PM 59.0 °F 55.4 °F 88% 29.77 in - SE 15.0 mph - N/A   Clear
8:20 PM 59.0 °F 55.4 °F 88% 29.77 in 6.2 mi ESE 15.0 mph - N/A   Mostly Cloudy
8:50 PM 59.0 °F 55.4 °F 88% 29.77 in 6.2 mi SE 12.7 mph - N/A   Mostly Cloudy
9:20 PM 59.0 °F 55.4 °F 88% 29.77 in 6.2 mi SE 15.0 mph - N/A Rain Light Rain
9:50 PM 59 °F 56 °F 85% 29.78 in 5 mi SE 15.0 mph - - Rain Rain Showers
9:50 PM 59.0 °F 55.4 °F 88% 29.77 in 5.0 mi SE 13.8 mph - N/A Rain Light Rain
10:20 PM 59.0 °F 55.4 °F 88% 29.74 in 5.6 mi SE 15.0 mph - N/A Rain Rain
10:50 PM 59.0 °F 57.2 °F 94% 29.74 in 4.3 mi SE 13.8 mph - N/A Rain Light Rain
11:20 PM 59.0 °F 57.2 °F 94% 29.71 in 3.1 mi SSE 13.8 mph - N/A Rain Rain
11:50 PM 59.0 °F 57.2 °F 94% 29.71 in 6.2 mi SSE 10.4 mph - N/A Rain Light Rain